Regional Weather Roundup
Issued by NWS State College, PA

Home | Current Version | Previous Version | Text Only | Print | Product List | Glossary On
Versions: 1 2 3 4 5 6 7 8 9 10 11 12 13 14 15 16 17 18 19 20 21 22 23 24 25 26 27 28 29 30 31 32 33 34 35 36 37 38 39 40 41 42 43 44 45 46 47 48 49 50
000
ASUS41 KCTP 262210
RWRCTP

REGIONAL WEATHER ROUNDUP
NATIONAL WEATHER SERVICE STATE COLLEGE PA
600 PM EDT SUN MAR 26 2017

Note: "fair" indicates few or no clouds below 12,000 feet with no
significant weather and/or obstructions to visibility.

* = STATION THAT DOES NOT REPORT PRECIPITATION /E.G. RAIN...SNOW...ETC/
    THUNDER OR FOG.

PAZ002>004-007>009-013>016-020>023-029>032-262300-
WESTERN PENNSYLVANIA

CITY           SKY/WX    TMP DP  RH WIND       PRES   REMARKS
ERIE           CLOUDY    55  50  83 CALM      29.95S
MEADVILLE      CLOUDY    60  47  61 VRB5      29.96F
FRANKLIN*      CLOUDY    54  45  71 SE13      30.01F
NEW CASTLE     FAIR      60  53  77 SE8       29.97F
BEAVER COUNTY  NOT AVBL
BUTLER*        MOSUNNY   61  46  59 SE9G17    30.01S
PITTSBURGH INT PTSUNNY   61  53  75 SE14      29.97F
PITTSBURGH     MOSUNNY   59  47  64 SE15      29.99F
INDIANA*       CLOUDY    52  45  76 SE14G25   30.09F
LATROBE        MOSUNNY   55  45  67 SE6       30.05F
WASHINGTON CO* CLOUDY    61  52  72 E9        30.00S
$$

PAZ004>006-010>012-017>019-024>028-033>037-041-042-045-046-049>053-262300-
CENTRAL PENNSYLVANIA

CITY           SKY/WX    TMP DP  RH WIND       PRES   REMARKS
BRADFORD       CLOUDY    44  41  89 SE14      30.07S
DUBOIS         CLOUDY    45  40  82 SE13G22   30.07F HAZE
CLEARFIELD       N/A    N/A N/A N/A MISG      30.14F
JOHNSTOWN      CLOUDY    43  42  97 SE8       30.10S FOG
ALTOONA        CLOUDY    45  43  93 SE9       30.16F FOG
STATE COLLEGE  CLOUDY    41  39  93 SE7       30.18F
WILLIAMSPORT   CLOUDY    44  37  76 E18G26    30.23F
SELINSGROVE    CLOUDY    43  38  82 E7        30.26F
FT INDIANTOWN  CLOUDY    41  41 100 E12G17    30.27F
CAPITAL CITY   CLOUDY    45  41  86 E12       30.27S FOG
HARRISBURG     CLOUDY    44  42  93 SE13      30.26S FOG
YORK           CLOUDY    44  43  96 E8        30.26R FOG
$$

PAZ038>040-043-044-047-048-054-055-060>062-067>071-262300-
EASTERN PENNSYLVANIA

CITY           SKY/WX    TMP DP  RH WIND       PRES   REMARKS
SCRANTON       CLOUDY    39  35  86 E9        30.26F
MOUNT POCONO   FOG       32  32 100 SE12G21   30.26S VSB 1/4
ALLENTOWN      CLOUDY    42  35  76 E15       30.33F
QUAKERTOWN*    CLOUDY    39  37  93 E9        30.33F
READING        CLOUDY    42  40  92 E7        30.30S
LANCASTER      CLOUDY    43  43 100 E14       30.26F FOG
COATESVILLE    CLOUDY    41  41 100 E14       30.29F FOG
POTTSTOWN      CLOUDY    41  38  89 E8        30.33F
BLUE BELL      CLOUDY    41  37  87 E8G17     30.32F
DOYLESTOWN     CLOUDY    40  38  93 VRB3      30.33F
WILLOW GROVE   NOT AVBL
NORTH PHILA    CLOUDY    43  40  89 E13       30.36S FOG
PHILADELPHIA   CLOUDY    44  39  82 E16       30.34F
$$




USA.gov is the U.S. government's official web portal to all federal, state and local government web resources and services.